Total_Precipitation_Accumulation
0.23 0.57 1.27 1.84 2.79 3.03 2.24 1.31 1.00 0.71 0.62 0.71 0.68 0.59 0.72 1.00 1.53 2.71 2.78 2.66 2.17 2.03 2.22 2.79 3.35 3.19 2.96 2.83 2.79 2.75 2.48 2.44 2.63 2.85 2.86 3.00 3.12 3.24 3.35 3.53 3.66 3.89 4.31 4.19 3.76 3.33 3.19 3.11 2.98
0.51 0.96 1.64 2.34 3.22 3.03 2.04 1.18 0.92 0.60 0.58 0.62 0.54 0.49 0.62 0.77 0.98 1.70 2.44 2.47 1.89 1.69 1.89 2.27 2.81 2.92 2.72 2.60 2.57 2.52 2.42 2.45 2.71 3.03 2.89 2.95 3.05 3.24 3.48 3.81 3.83 3.90 3.87 3.49 3.35 3.03 2.82 2.67 2.73
0.85 1.30 1.99 2.62 2.43 2.11 1.41 0.86 0.65 0.51 0.60 0.61 0.52 0.54 0.77 1.15 1.28 1.74 2.01 1.86 1.60 1.49 1.71 2.25 2.56 2.59 2.61 2.69 2.85 2.69 2.68 2.74 2.99 3.08 2.86 2.86 2.88 3.05 3.37 3.93 3.86 3.60 3.32 3.10 3.12 2.86 2.72 2.42 2.38
1.08 1.73 2.03 2.00 1.63 1.20 0.85 0.69 0.51 0.48 0.59 0.54 0.52 0.80 1.14 1.37 1.24 1.40 1.49 1.40 1.27 1.37 1.70 2.16 2.33 2.14 2.31 2.65 2.80 2.86 2.93 3.09 3.20 2.94 2.85 2.81 2.85 2.89 3.11 3.44 3.42 3.31 3.03 2.96 2.90 2.73 2.50 2.34 2.33
1.26 1.98 2.21 1.58 1.13 0.86 0.66 0.56 0.49 0.47 0.43 0.51 0.63 1.09 1.59 1.64 1.16 1.24 1.32 1.17 1.12 1.45 1.78 1.93 2.17 1.98 1.93 2.19 2.49 2.81 3.11 3.37 3.22 2.81 2.61 2.55 2.58 2.63 2.73 2.90 2.96 2.93 2.74 2.69 2.65 2.55 2.32 2.36 2.35
1.58 1.85 1.71 1.18 0.87 0.65 0.58 0.51 0.44 0.42 0.46 0.55 0.70 0.95 1.79 1.83 1.40 1.48 1.38 1.35 1.37 1.51 1.64 1.89 2.06 1.87 1.84 1.98 2.12 2.38 2.86 3.16 2.92 2.57 2.40 2.30 2.21 2.22 2.31 2.53 2.74 2.70 2.51 2.36 2.32 2.34 2.30 2.28 2.18
1.59 1.69 1.25 0.79 0.68 0.59 0.49 0.41 0.40 0.44 0.59 0.68 0.74 1.11 1.96 2.20 1.74 1.54 1.59 1.70 1.66 1.73 1.92 1.93 1.79 1.78 1.94 2.16 2.30 2.36 2.68 2.79 2.62 2.49 2.33 2.19 2.09 2.15 2.18 2.24 2.53 2.54 2.41 2.32 2.28 2.27 2.20 2.20 2.15
1.05 1.13 0.88 0.60 0.56 0.56 0.39 0.32 0.37 0.46 0.63 0.75 0.90 1.28 2.06 2.13 1.75 1.61 1.74 2.08 1.99 1.94 1.94 1.86 1.68 1.74 1.79 2.05 2.48 2.58 2.61 2.61 2.53 2.43 2.36 2.22 2.14 2.30 2.32 2.12 2.53 2.65 2.64 2.54 2.54 2.61 2.31 2.25 2.37
0.68 0.92 0.77 0.53 0.45 0.45 0.36 0.32 0.39 0.51 0.64 0.75 1.04 1.26 1.49 1.53 1.63 1.61 1.90 2.36 2.44 2.21 2.09 1.89 1.55 1.68 1.89 2.11 2.27 2.43 2.49 2.66 2.75 2.70 2.55 2.55 2.65 2.66 2.78 2.55 3.02 3.17 3.11 2.98 2.99 3.05 2.86 2.75 2.61
0.57 0.68 0.55 0.34 0.31 0.33 0.32 0.30 0.39 0.70 0.92 1.17 1.43 1.42 1.29 1.32 1.55 1.72 1.97 2.47 2.58 2.49 2.29 2.05 1.76 1.79 2.06 2.04 2.07 2.29 2.30 2.53 2.70 2.90 2.76 3.07 3.39 3.22 2.57 2.93 3.46 3.78 3.83 3.66 3.67 3.73 3.45 3.08 2.82
0.46 0.48 0.33 0.28 0.27 0.23 0.21 0.27 0.35 0.55 1.12 1.63 1.86 1.83 1.68 1.47 1.69 2.05 2.44 2.83 2.62 2.39 2.30 2.25 2.12 2.12 2.03 2.16 2.14 2.34 2.56 2.99 2.94 2.88 2.86 3.31 3.22 2.92 2.72 3.09 3.59 4.10 3.96 3.76 3.82 3.94 3.44 3.45 3.79
0.37 0.34 0.22 0.19 0.21 0.18 0.21 0.28 0.42 0.58 1.10 1.38 1.56 1.63 1.63 1.63 1.77 2.02 2.33 2.68 2.90 2.83 2.70 2.62 2.53 2.48 2.53 2.48 2.37 2.31 2.43 2.72 2.87 3.12 2.87 3.20 3.52 3.46 3.41 3.77 3.77 4.06 4.21 4.59 4.35 4.45 4.17 4.06 3.88
0.28 0.23 0.17 0.15 0.16 0.17 0.22 0.32 0.49 0.69 0.94 0.98 1.03 1.14 1.41 1.70 2.14 2.45 2.57 2.93 3.06 3.23 3.11 3.10 3.01 3.02 3.11 3.12 2.98 2.45 2.62 2.73 2.88 3.22 3.26 3.38 3.76 3.94 4.01 4.05 4.01 3.71 3.99 4.44 4.73 4.31 4.62 4.63 4.17
0.25 0.20 0.18 0.17 0.17 0.20 0.24 0.33 0.46 0.71 0.81 0.84 0.92 1.12 1.39 1.72 2.04 2.51 2.79 3.21 3.23 3.33 3.56 3.77 3.70 3.61 3.69 3.65 3.55 3.33 3.12 3.33 3.32 3.51 3.75 3.94 4.31 4.55 4.49 4.29 4.22 3.81 3.73 4.07 4.29 4.27 4.78 4.61 4.32
0.24 0.26 0.25 0.23 0.21 0.25 0.42 0.67 0.71 0.82 0.82 0.97 1.07 1.34 1.51 1.82 2.20 2.32 2.49 2.79 3.15 3.50 4.10 4.49 4.51 4.40 4.46 4.46 4.17 3.87 3.82 3.82 4.12 4.43 4.52 4.52 4.67 5.03 4.82 4.57 4.13 3.86 3.85 4.10 4.07 4.12 4.28 4.06 3.93
0.32 0.44 0.51 0.38 0.29 0.31 0.53 1.10 0.98 0.91 0.95 1.12 1.17 1.40 1.76 1.86 2.20 2.35 2.39 2.64 3.30 3.85 4.55 4.98 5.08 5.28 5.20 5.28 5.07 4.63 4.52 4.53 4.59 4.75 4.97 4.75 4.73 4.67 4.79 4.47 3.94 3.93 3.85 3.94 4.17 4.04 4.13 4.09 4.06
0.44 0.53 0.57 0.53 0.35 0.36 0.54 1.00 1.01 0.94 1.10 1.23 1.39 1.43 1.59 1.83 2.29 2.60 2.76 2.89 3.53 4.23 4.97 5.55 6.13 6.34 6.18 5.95 5.65 5.35 5.34 5.20 5.02 5.00 5.02 4.90 4.56 4.35 4.62 4.36 4.11 3.95 3.89 3.80 3.58 4.11 4.26 4.29 4.28
0.49 0.50 0.55 0.60 0.37 0.36 0.59 0.85 1.01 1.09 1.24 1.38 1.42 1.38 1.52 1.87 2.12 2.51 2.86 3.28 3.85 4.34 5.11 5.87 6.64 6.84 6.58 6.07 5.90 5.89 5.72 5.40 5.13 4.90 4.89 4.59 4.36 3.97 4.24 3.95 3.85 3.94 4.14 4.02 4.08 4.46 4.46 4.10 4.20
0.34 0.40 0.53 0.55 0.37 0.42 0.64 0.84 1.03 1.22 1.36 1.41 1.51 1.47 1.65 1.96 2.14 2.53 2.96 3.44 3.97 4.50 5.21 5.92 6.56 6.71 6.58 6.28 5.99 5.76 5.34 5.04 4.71 4.46 4.36 4.14 3.81 3.65 4.05 3.68 4.03 3.89 3.87 3.74 3.75 4.01 4.04 3.66 3.85
0.29 0.40 0.55 0.54 0.40 0.44 0.69 0.95 1.20 1.27 1.20 1.18 1.35 1.44 1.52 1.75 2.08 2.49 3.06 3.36 3.72 4.25 4.86 5.28 5.42 5.28 5.20 5.31 5.28 5.02 5.04 4.88 4.82 4.69 4.58 4.10 3.87 3.73 3.48 3.72 3.53 3.51 3.73 3.52 3.50 3.78 3.73 3.37 3.71
0.22 0.33 0.43 0.48 0.47 0.58 0.85 1.28 1.52 1.49 1.19 1.07 1.08 1.21 1.35 1.48 1.71 2.09 2.67 3.02 3.27 3.77 4.11 4.13 4.14 4.18 4.34 4.44 4.41 4.47 4.72 4.81 4.92 4.89 4.68 4.30 4.05 3.86 3.64 3.50 3.36 3.38 3.19 3.38 3.46 3.53 3.66 3.63 3.53
0.23 0.21 0.28 0.35 0.53 0.93 1.06 1.70 1.98 1.98 1.62 1.26 1.14 1.27 1.35 1.41 1.44 1.77 2.13 2.38 2.73 3.06 3.20 3.19 3.33 3.53 3.67 3.77 3.75 3.67 3.72 3.98 4.28 4.56 4.73 4.67 4.36 4.06 3.74 3.49 3.28 3.15 2.95 3.26 2.93 3.09 3.44 3.68 3.36
0.17 0.16 0.23 0.36 0.52 0.79 0.94 1.35 1.91 2.14 2.07 1.63 1.31 1.24 1.18 1.31 1.49 1.68 1.81 2.02 2.15 2.26 2.43 2.51 2.80 3.30 3.53 3.59 3.70 3.66 3.42 3.45 3.57 3.74 3.97 3.98 4.01 3.83 3.43 3.32 3.24 3.06 2.85 2.90 2.91 3.28 3.28 3.24 3.16
0.16 0.22 0.36 0.53 0.79 1.19 1.01 1.17 1.77 1.91 1.92 1.52 1.28 1.19 1.10 1.10 1.21 1.42 1.70 1.82 1.82 1.86 2.02 2.25 2.59 3.19 3.50 3.56 3.46 3.50 3.55 3.64 3.55 3.51 3.62 3.53 3.52 3.44 3.12 2.98 3.12 3.01 2.90 2.94 2.94 3.05 3.10 3.24 3.31
0.19 0.39 0.90 1.40 1.76 1.74 1.07 1.07 1.37 1.39 1.26 1.22 1.09 1.12 1.19 1.09 1.01 1.02 1.21 1.45 1.48 1.48 1.66 1.93 2.21 2.68 3.01 3.16 3.02 3.01 3.25 3.49 3.37 3.18 3.13 3.11 2.96 2.89 2.84 2.85 2.97 2.87 2.92 2.97 3.08 3.12 3.09 3.20 3.24
0.19 0.32 0.79 1.20 1.28 1.38 1.23 1.59 1.63 1.21 1.02 0.93 0.83 0.91 1.00 0.89 0.80 0.75 0.82 1.00 1.27 1.31 1.43 1.59 1.86 2.12 2.45 2.68 2.73 2.80 3.01 3.17 3.12 3.33 3.06 2.89 2.54 2.43 2.55 2.77 2.76 2.66 2.65 2.69 3.17 3.17 3.18 3.29 3.19
0.19 0.22 0.36 0.55 0.75 1.14 1.44 1.63 1.53 1.26 1.16 0.96 0.80 0.78 0.76 0.70 0.71 0.75 0.82 1.04 1.12 1.12 1.22 1.38 1.60 1.82 2.12 2.36 2.53 2.59 2.58 2.62 2.78 2.96 2.89 2.72 2.65 2.37 2.46 2.58 2.83 2.89 2.93 2.98 3.18 3.14 3.17 3.40 3.33
0.17 0.21 0.31 0.44 0.74 1.05 1.36 1.79 1.85 1.56 1.33 1.12 1.03 0.86 0.78 0.76 0.75 0.76 0.78 0.86 0.93 0.98 1.11 1.35 1.62 1.68 1.91 2.27 2.51 2.45 2.53 2.45 2.60 2.58 2.56 2.59 2.53 2.49 2.59 2.62 2.72 2.91 3.02 3.04 3.18 3.15 3.21 3.41 3.43
0.23 0.22 0.25 0.34 0.45 0.70 1.31 1.54 1.30 1.26 1.20 1.15 1.05 0.97 0.92 0.87 0.82 0.78 0.79 0.82 0.96 0.91 0.99 1.19 1.38 1.55 1.85 2.24 2.57 2.63 2.54 2.52 2.58 2.39 2.34 2.48 2.51 2.51 2.64 2.67 2.67 2.65 2.80 3.02 3.25 3.12 3.26 3.39 3.42
0.23 0.23 0.26 0.36 0.39 0.47 0.79 1.12 0.78 0.87 0.99 1.04 0.94 0.86 0.81 0.73 0.71 0.66 0.66 0.73 0.73 0.76 0.89 1.25 1.56 1.96 2.21 2.59 2.95 3.00 2.77 2.55 2.39 2.17 2.17 2.35 2.53 2.56 2.57 2.59 2.58 2.50 2.63 2.93 3.06 3.15 3.45 3.59 3.44